Meadow Lake, CO

9:16 AM MDT on August 21, 2017 (GMT -0600)
Meadow Lake

Weather History for KFLY - January, 2014

Change the Weather History Date:

Friday, January 31, 2014

  Actual Average (KCOS) Record (KCOS)
Temperature  
Mean Temperature 19 °F -  
Max Temperature 23 °F 44 °F 70 °F (1989)
Min Temperature 15 °F 20 °F -26 °F (1951)
Degree Days  
Heating Degree Days 46    
Moisture  
Dew Point 17 °F    
Average Humidity 91    
Maximum Humidity 99    
Minimum Humidity 78    
Precipitation  
Precipitation 0.00 in - - ()
Sea Level Pressure  
Sea Level Pressure 29.68 in    
Wind  
Wind Speed 8 mph (NNW)    
Max Wind Speed 13 mph    
Max Gust Speed 17 mph    
Visibility 4 miles    
Events Fog , Snow    
Averages and records for this station are not official NWS values.
T = Trace of Precipitation, MM = Missing Value Source: NWS Daily Summary

Daily Weather History Graph

Daily Weather History Graph

Search for Another Location

Airport or City:

Trip Planner

Search our weather history database for the weather conditions in past years. The results will help you decide how hot, cold, wet, or windy it might be!

Date:

Astronomy

Jan. 31, 2014 Rise Set
Actual Time 7:05 AM MST 5:18 PM MST
Civil Twilight 6:37 AM MST 5:46 PM MST
Nautical Twilight 6:05 AM MST 6:18 PM MST
Astronomical Twilight 5:33 AM MST 6:50 PM MST
Moon 7:17 AM MST (1/31) 6:44 PM MST (1/31)
Length of Visible Light 11h 09m
Length of Day
10h 13m
New Moon, 1% of the Moon is Illuminated
Jan 31
New Moon
Feb 6
First Quarter
Feb 14
Full
Feb 22
Last Quarter
Mar 1
New

Hourly Weather History & Observations

Time (MST) Temp. Windchill Dew Point Humidity Pressure Visibility Wind Dir Wind Speed Gust Speed Precip Events Conditions
12:11 AM 23.0 °F - 22.6 °F 99% 29.65 in 0.2 mi North - - N/A Fog Light Freezing Fog
12:31 AM 22.6 °F - 22.1 °F 98% 29.65 in 0.2 mi North - - N/A Snow Light Snow
12:51 AM 22.1 °F - 21.7 °F 99% 29.66 in 0.8 mi North - - N/A   Overcast
1:11 AM 21.9 °F - 21.4 °F 98% 29.65 in 1.2 mi North - - N/A Snow Light Snow
1:31 AM 21.9 °F - 21.2 °F 97% 29.67 in 1.8 mi North - - N/A Snow Light Snow
1:51 AM 21.6 °F - 20.8 °F 97% 29.67 in 2.5 mi North - - N/A Snow Light Snow
2:11 AM 21.2 °F - 20.5 °F 97% 29.68 in 7.0 mi North - - N/A Snow Light Snow
2:31 AM 21.2 °F - 20.3 °F 96% 29.68 in 2.5 mi North - - N/A Snow Light Snow
2:51 AM 19.8 °F - 18.3 °F 94% 29.70 in 2.0 mi North - - N/A Snow Light Snow
3:11 AM 18.5 °F - 17.1 °F 94% 29.68 in 1.2 mi North - - N/A Snow Light Snow
3:31 AM 19.0 °F 7.5 °F 16.5 °F 90% 29.68 in 7.0 mi NNW 10.4 mph - N/A Snow Light Snow
3:51 AM 19.0 °F - 15.4 °F 86% 29.68 in 10.0 mi North - - N/A   Overcast
4:11 AM 18.0 °F 6.1 °F 14.5 °F 86% 29.68 in 3.0 mi North 10.4 mph 17.3 mph N/A Snow Light Snow
4:31 AM 18.0 °F 4.8 °F 13.3 °F 82% 29.70 in 10.0 mi NNW 12.7 mph 17.3 mph N/A   Overcast
4:51 AM 17.4 °F 6.2 °F 13.6 °F 85% 29.70 in 10.0 mi North 9.2 mph - N/A   Overcast
5:11 AM 17.6 °F - 14.0 °F 86% 29.72 in 10.0 mi North - - N/A   Overcast
5:31 AM 17.2 °F - 13.8 °F 86% 29.72 in 10.0 mi North - - N/A   Overcast
5:51 AM 15.6 °F 7.0 °F 12.9 °F 89% 29.73 in 10.0 mi NNW 5.8 mph - N/A   Mostly Cloudy
6:11 AM 15.6 °F 7.0 °F 13.1 °F 90% 29.74 in 10.0 mi North 5.8 mph - N/A   Mostly Cloudy
6:31 AM 15.4 °F - 13.3 °F 91% 29.73 in 10.0 mi North - - N/A   Overcast
6:51 AM 16.5 °F - 14.0 °F 90% 29.74 in 10.0 mi North - - N/A   Overcast
7:11 AM 17.1 °F - 14.4 °F 89% 29.76 in 5.0 mi Calm Calm - N/A Snow Light Snow
7:31 AM 17.4 °F - 14.9 °F 90% 29.76 in 7.0 mi North - - N/A   Overcast
7:51 AM 17.4 °F - 15.6 °F 93% 29.76 in 7.0 mi North - - N/A   Overcast
8:11 AM 17.4 °F - 16.7 °F 97% 29.76 in 0.5 mi North - - N/A Fog Light Freezing Fog
8:31 AM 17.6 °F - 17.2 °F 98% 29.76 in 0.2 mi North - - N/A Fog Light Freezing Fog
8:51 AM 17.4 °F - 16.7 °F 97% 29.76 in 0.5 mi North - - N/A Fog Light Freezing Fog
9:11 AM 17.6 °F - 17.2 °F 98% 29.75 in 0.2 mi North - - N/A Fog Light Freezing Fog
9:31 AM 18.1 °F - 17.2 °F 96% 29.74 in 0.2 mi North - - N/A Fog Light Freezing Fog
9:51 AM 18.5 °F - 17.6 °F 96% 29.74 in 0.2 mi North - - N/A Fog Light Freezing Fog
10:11 AM 18.5 °F - 17.4 °F 96% 29.74 in 0.2 mi North - - N/A Fog Light Freezing Fog
10:31 AM 19.4 °F - 18.0 °F 94% 29.73 in 2.5 mi North - - N/A   Overcast
10:51 AM 20.1 °F - 17.6 °F 90% 29.72 in 7.0 mi North - - N/A   Overcast
11:11 AM 19.0 °F - 17.1 °F 92% 29.72 in 4.0 mi North - - N/A   Overcast
11:31 AM 18.5 °F - 16.7 °F 93% 29.71 in 2.0 mi North - - N/A   Overcast
11:51 AM 18.5 °F - 16.7 °F 93% 29.70 in 2.0 mi North - - N/A Snow Light Snow
12:11 PM 18.1 °F - 16.3 °F 93% 29.67 in 3.0 mi North - - N/A Snow Light Snow
12:31 PM 18.5 °F - 16.0 °F 90% 29.65 in 1.0 mi North - - N/A Snow Light Snow
12:51 PM 19.4 °F - 15.8 °F 86% 29.64 in 0.5 mi North - - N/A Snow Light Snow
1:11 PM 20.7 °F - 14.9 °F 78% 29.63 in 1.2 mi North - - N/A Snow Light Snow
1:31 PM 19.6 °F - 14.9 °F 82% 29.62 in 1.8 mi North - - N/A Snow Light Snow
1:51 PM 18.5 °F - 15.3 °F 87% 29.62 in 0.8 mi North - - N/A Snow Light Snow
2:11 PM 19.6 °F - 16.3 °F 87% 29.61 in 0.8 mi North - - N/A Snow Light Snow
2:31 PM 20.8 °F - 16.2 °F 82% 29.60 in 2.5 mi North - - N/A Snow Light Snow
2:51 PM 20.7 °F - 16.0 °F 82% 29.60 in 3.0 mi North - - N/A Snow Light Snow
3:11 PM 20.3 °F - 16.7 °F 86% 29.62 in 4.0 mi North - - N/A Snow Light Snow
3:31 PM 20.1 °F - 16.7 °F 87% 29.61 in 2.5 mi North - - N/A Snow Light Snow
3:51 PM 19.8 °F - 17.4 °F 91% 29.63 in 0.8 mi North - - N/A Snow Light Snow
4:11 PM 19.4 °F - 17.6 °F 93% 29.63 in 0.2 mi North - - N/A Snow Snow
4:31 PM 18.9 °F - 17.4 °F 94% 29.63 in 0.5 mi North - - N/A Snow Light Snow
4:51 PM 18.5 °F - 17.1 °F 94% 29.65 in 1.0 mi North - - N/A Snow Light Snow
5:11 PM 18.5 °F - 16.7 °F 93% 29.65 in 3.0 mi North - - N/A Snow Light Snow
5:31 PM 18.5 °F - 16.7 °F 93% 29.65 in 5.0 mi North - - N/A Snow Light Snow
5:51 PM 17.6 °F - 16.2 °F 94% 29.64 in 7.0 mi North - - N/A Snow Light Snow
6:11 PM 17.2 °F - 15.8 °F 94% 29.65 in 7.0 mi North - - N/A   Overcast
6:31 PM 17.6 °F - 16.2 °F 94% 29.64 in 10.0 mi North - - N/A   Overcast
6:51 PM 18.5 °F - 16.9 °F 93% 29.66 in 10.0 mi Calm Calm - N/A   Overcast
7:11 PM 18.3 °F - 17.1 °F 95% 29.67 in 7.0 mi North - - N/A   Overcast
7:31 PM 18.5 °F - 17.4 °F 96% 29.68 in 7.0 mi North - - N/A   Overcast
7:51 PM 19.2 °F - 17.6 °F 93% 29.68 in 7.0 mi North - - N/A   Overcast
8:11 PM 19.4 °F - 17.6 °F 93% 29.68 in 7.0 mi North - - N/A   Overcast
8:31 PM 19.4 °F - 17.6 °F 93% 29.68 in 5.0 mi North - - N/A Snow Light Snow
8:51 PM 19.4 °F - 17.8 °F 93% 29.68 in 4.0 mi North - - N/A Snow Light Snow
9:11 PM 20.3 °F - 19.0 °F 95% 29.68 in 3.0 mi North - - N/A Snow Light Snow
9:31 PM 22.5 °F - 20.1 °F 91% 29.68 in 3.0 mi North - - N/A Snow Light Snow
9:51 PM 22.5 °F - 19.9 °F 90% 29.68 in 7.0 mi North - - N/A Snow Light Snow
10:11 PM 23.0 °F - 20.3 °F 89% 29.70 in 4.0 mi North - - N/A Snow Light Snow
10:31 PM 23.4 °F - 20.7 °F 89% 29.70 in 2.5 mi North - - N/A Snow Light Snow
10:51 PM 23.0 °F - 20.8 °F 91% 29.70 in 5.0 mi North - - N/A Snow Light Snow
11:11 PM 23.0 °F - 20.3 °F 89% 29.70 in 7.0 mi North - - N/A   Overcast
11:31 PM 22.6 °F - 19.4 °F 87% 29.70 in 7.0 mi North - - N/A   Overcast
11:51 PM 21.7 °F - 18.5 °F 87% 29.71 in 10.0 mi North - - N/A   Overcast